Flag for Germany Weather past 2 weeks in Altenburg, Thuringia, Germany

Now
56 °F

Scattered clouds.


Feels Like: 56 °F
Forecast: 35 / 59 °F
Wind: 3 mph from East

Location: Gera-Leumnitz

Current Time: Apr 19, 2015 at 4:58:59 PM

Latest Report: Apr 19, 2015 at 4:00 PM


Visibility: 37 mi

Pressure: 30.18 "Hg

Humidity: 39%

Dew point: 31 °F

Location of AltenburgLocation

Historic Weather in Altenburg — Graph

°F

Altenburg temperature yesterday

Maximum temperature yesterday: 50 °F (at 4:00 PM)
Minimum temperature yesterday: 35 °F (at 6:00 AM)
Average temperature yesterday: 41 °F

Past Weeks' High & Low Weather Summary

 TemperatureHumidityPressure
High72 °F (Apr 15, 5:00 PM)96% (Apr 5, 4:00 AM)30.63 "Hg (Apr 5, 4:00 AM)
Low27 °F (Apr 7, 6:00 AM)25% (Apr 15, 5:00 PM)29.89 "Hg (Apr 15, 7:00 PM)
Average47 °F65%30.25 "Hg
* Reported Apr 4 3:00 PM — Apr 19 3:00 PM, Altenburg, Weather by CustomWeather, © 2015

Note: Actual official high and low records may vary slightly from our data, if they occured in-between our weather recording intervals... More about our weather records

Advertising

Altenburg weather history for previous 24 hours

 ConditionsComfort  
Time TempWeatherWind HumidityBarometerVisibility
3:00 PM
Sun, Apr 19
54 °FScattered clouds.3 mph39%30.19 "Hg37 mi
2:00 PM53 °FScattered clouds.2 mph41%30.19 "Hg37 mi
1:00 PM53 °FPassing clouds.5 mph46%30.19 "Hg31 mi
12:00 PM51 °FPassing clouds.5 mph45%30.21 "Hg34 mi
11:00 AM49 °FPassing clouds.2 mph54%30.22 "Hg31 mi
10:00 AM46 °FScattered clouds.1 mph54%30.22 "Hg37 mi
9:00 AM40 °FScattered clouds.2 mph70%30.24 "Hg43 mi
8:00 AM35 °FPartly sunny.2 mph78%30.24 "Hg47 mi
7:00 AM31 °FPartly sunny.3 mph84%30.24 "Hg47 mi
6:00 AM31 °FPassing clouds.3 mph85%30.23 "Hg25 mi
5:00 AM31 °FClear.3 mph83%30.24 "Hg15 mi
4:00 AM32 °FClear.3 mph82%30.24 "Hg16 mi
3:00 AM32 °FPassing clouds.3 mph83%30.26 "Hg17 mi
2:00 AM34 °FPassing clouds.3 mph81%30.26 "Hg17 mi
1:00 AM33 °FPassing clouds.3 mph82%30.28 "Hg9 mi
12:00 AM36 °FClear.2 mph75%30.28 "Hg13 mi
11:00 PM
Sat, Apr 18
38 °FClear.3 mph67%30.27 "Hg18 mi
10:00 PM40 °FClear.3 mph63%30.27 "Hg19 mi
9:00 PM43 °FPassing clouds.1 mph53%30.26 "Hg40 mi
8:00 PM46 °FPassing clouds.1 mph49%30.25 "Hg40 mi
7:00 PM47 °FPassing clouds.2 mph47%30.25 "Hg40 mi
6:00 PM48 °FPartly sunny.3 mph45%30.27 "Hg43 mi
5:00 PM48 °FOvercast.2 mph45%30.27 "Hg43 mi
4:00 PM50 °FPartly sunny.3 mph42%30.27 "Hg47 mi
Weather by CustomWeather, © 2015

See weather overviewHow to use our weather pages